Date,TemperatureHighF,TemperatureAvgF,TemperatureLowF,DewpointHighF,DewpointAvgF,DewpointLowF,HumidityHigh,HumidityAvg,HumidityLow,PressureMaxIn,PressureMinIn,WindSpeedMaxMPH,WindSpeedAvgMPH,GustSpeedMaxMPH,PrecipitationSumIn
2013-1-1,41,38,30,29,25,14,69,59,47,0.00,40.00,14,7,21,0.00
2013-1-2,33,28,25,15,12,9,60,51,43,0.00,40.00,14,7,23,0.00
2013-1-3,34,29,25,17,15,14,68,56,43,0.00,40.00,8,4,15,0.00
2013-1-4,37,34,28,21,20,18,67,57,47,0.00,40.00,15,8,28,0.00
2013-1-5,43,36,31,22,20,17,68,53,41,0.00,40.00,13,5,20,0.00
2013-1-6,47,39,32,34,28,22,94,66,49,0.00,40.00,12,4,16,0.00
2013-1-7,46,38,29,29,26,21,80,62,38,0.00,40.00,12,4,22,0.00
2013-1-8,50,36,28,31,27,22,86,72,47,0.00,40.00,10,2,22,0.00
2013-1-9,52,43,30,39,34,28,92,72,57,0.00,40.00,8,3,16,0.00
2013-1-10,49,41,35,28,25,21,73,54,33,0.00,40.00,9,3,21,0.00
2013-1-11,47,44,39,45,37,28,96,78,58,0.00,40.00,8,4,14,0.00
2013-1-12,47,46,44,46,44,43,97,95,91,0.00,40.00,10,3,14,0.00
2013-1-13,51,46,42,50,45,41,97,95,90,0.00,40.00,8,4,15,0.00
2013-1-14,58,51,43,54,44,30,97,80,45,0.00,40.00,11,4,18,0.00
2013-1-15,41,39,37,37,30,26,89,71,59,0.00,40.00,10,4,15,0.00
2013-1-16,40,37,35,39,34,31,95,92,81,0.00,40.00,10,5,19,0.00
2013-1-17,43,40,38,35,30,27,86,69,54,0.00,40.00,11,5,16,0.00
2013-1-18,37,30,27,25,10,2,63,43,30,0.00,40.00,16,7,27,0.00
2013-1-19,53,40,28,27,21,10,63,46,31,0.00,40.00,16,11,33,0.00
2013-1-20,54,44,34,28,22,11,59,43,21,0.00,40.00,17,10,32,0.00
2013-1-21,33,29,26,25,13,6,95,54,38,0.00,40.00,11,4,16,0.00
2013-1-22,27,20,15,14,-2,-8,60,40,30,0.00,40.00,17,11,32,0.00
2013-1-23,20,15,11,0,-5,-8,60,45,34,0.00,40.00,14,7,26,0.00
2013-1-24,24,18,11,3,-2,-10,73,47,24,0.00,40.00,21,8,32,0.00
2013-1-25,24,18,13,15,3,-6,92,59,36,0.00,40.00,12,5,18,0.00
2013-1-26,27,20,12,10,7,4,92,64,38,0.00,40.00,15,7,22,0.00
2013-1-27,34,26,17,13,9,6,67,51,34,0.00,40.00,12,6,22,0.00
2013-1-28,35,30,22,34,24,13,94,81,64,0.00,40.00,6,3,13,0.00
2013-1-29,52,42,36,43,39,34,94,89,62,0.00,40.00,7,4,14,0.00
2013-1-30,63,53,43,56,49,42,97,88,78,0.00,40.00,17,8,38,0.00
2013-1-31,61,41,30,57,20,10,89,44,33,0.00,40.00,26,16,42,0.00
2013-2-1,31,28,24,13,8,3,52,43,31,0.00,40.00,23,9,31,0.00
2013-2-2,31,25,19,20,6,2,88,47,29,0.00,40.00,13,7,23,0.00
2013-2-3,30,26,23,22,20,17,93,78,63,0.00,40.00,6,2,13,0.00
2013-2-4,30,27,23,21,10,7,79,52,39,0.00,40.00,16,8,29,0.00
2013-2-5,33,31,26,30,28,22,91,88,84,0.00,40.00,5,2,11,0.00
2013-2-6,40,34,30,30,23,9,92,65,38,0.00,40.00,13,6,26,0.00
2013-2-7,39,31,26,32,15,3,75,53,31,0.00,40.00,8,3,13,0.00
2013-2-8,41,37,30,38,34,29,97,89,78,0.00,40.00,29,11,35,0.00
2013-2-9,33,28,23,28,17,5,97,68,34,0.00,40.00,21,12,33,0.00
2013-2-10,35,26,12,22,11,3,80,58,31,0.00,40.00,16,3,19,0.00
2013-2-11,49,40,32,47,38,24,97,91,73,0.00,40.00,13,3,24,0.00
2013-2-12,45,41,34,41,26,22,96,57,43,0.00,40.00,16,9,29,0.00
2013-2-13,40,35,27,31,26,22,94,72,57,0.00,40.00,8,2,10,0.00
2013-2-14,43,37,32,34,32,29,95,81,58,0.00,40.00,11,5,13,0.00
2013-2-15,53,43,34,38,34,30,88,71,47,0.00,40.00,12,5,18,0.00
2013-2-16,42,37,32,33,27,17,87,68,52,0.00,40.00,11,6,23,0.00
2013-2-17,33,28,20,15,4,-4,51,37,26,0.00,40.00,27,16,41,0.00
2013-2-18,36,26,18,10,3,-3,46,38,27,0.00,40.00,26,10,32,0.00
2013-2-19,52,40,30,44,30,11,93,69,41,0.00,40.00,16,6,32,0.00
2013-2-20,39,31,26,25,12,6,58,45,35,0.00,40.00,22,13,32,0.00
2013-2-21,36,29,24,13,11,8,59,48,38,0.00,40.00,21,12,35,0.00
2013-2-22,40,33,26,33,24,15,79,70,62,0.00,40.00,7,5,17,0.00
2013-2-23,44,41,37,43,39,34,96,92,82,0.00,40.00,10,6,22,0.00
2013-2-24,48,40,34,38,31,21,95,73,50,0.00,40.00,18,9,30,0.00
2013-2-25,43,38,30,27,24,21,74,59,46,0.00,40.00,10,4,15,0.00
2013-2-26,44,37,28,36,31,25,91,79,68,0.00,40.00,15,6,27,0.00
2013-2-27,52,45,40,49,41,36,96,86,65,0.00,40.00,23,8,30,0.00
2013-2-28,48,44,39,38,33,27,85,67,51,0.00,40.00,11,4,17,0.00
2013-3-1,44,40,34,30,28,25,84,64,47,0.00,40.00,14,7,24,0.00
2013-3-2,40,36,31,25,23,22,75,60,50,0.00,40.00,11,8,19,0.00
2013-3-3,38,33,29,22,18,16,74,56,44,0.00,40.00,13,8,23,0.00
2013-3-4,42,35,27,19,17,14,63,49,37,0.00,40.00,23,13,34,0.00
2013-3-5,47,38,31,32,24,19,77,57,39,0.00,40.00,11,5,22,0.00
2013-3-6,41,40,38,35,33,29,85,77,68,0.00,40.00,24,13,42,0.00
2013-3-7,38,36,33,34,31,27,94,83,68,0.00,40.00,18,11,30,0.00
2013-3-8,42,35,32,33,31,29,96,87,60,0.00,40.00,12,8,23,0.00
2013-3-9,54,43,36,29,24,18,66,50,24,0.00,40.00,11,7,21,0.00
2013-3-10,40,37,29,35,32,27,95,85,78,0.00,40.00,10,4,13,0.00
2013-3-11,51,43,33,46,40,32,95,90,79,0.00,40.00,16,5,19,0.00
2013-3-12,56,51,48,54,47,39,93,86,70,0.00,40.00,17,12,25,0.00
2013-3-13,50,43,38,37,30,21,86,61,32,0.00,40.00,12,6,26,0.00
2013-3-14,41,36,31,25,13,5,60,39,25,0.00,40.00,24,12,36,0.00
2013-3-15,48,39,29,26,16,6,50,40,30,0.00,40.00,16,9,29,0.00
2013-3-16,46,37,33,31,27,20,92,69,49,0.00,40.00,9,4,16,0.00
2013-3-17,38,34,31,32,20,13,92,57,37,0.00,40.00,18,8,24,0.00
2013-3-18,38,34,30,36,23,10,93,66,41,0.00,40.00,13,8,28,0.00
2013-3-19,48,41,38,38,35,18,94,81,38,0.00,40.00,15,8,26,0.00
2013-3-20,46,39,33,27,18,14,67,43,28,0.00,40.00,16,8,28,0.00
2013-3-21,39,33,29,28,22,14,91,65,43,0.00,40.00,12,5,21,0.00
2013-3-22,40,34,27,20,16,12,64,49,35,0.00,40.00,15,8,26,0.00
2013-3-23,46,38,30,20,18,15,63,45,30,0.00,40.00,20,10,31,0.00
2013-3-24,44,38,30,27,20,15,63,48,37,0.00,40.00,16,6,25,0.00
2013-3-25,39,36,34,34,32,27,93,82,64,0.00,40.00,21,7,29,0.00
2013-3-26,49,42,34,34,30,23,92,66,35,0.00,40.00,11,4,19,0.00
2013-3-27,51,42,35,30,26,19,69,54,29,0.00,40.00,18,8,22,0.00
2013-3-28,49,43,35,31,29,26,75,57,42,0.00,40.00,13,8,20,0.00
2013-3-29,54,46,38,30,27,23,67,50,30,0.00,40.00,14,6,25,0.00
2013-3-30,55,46,37,33,27,-100,70,53,24,0.00,40.00,13,5,20,0.00
2013-3-31,51,45,35,45,36,23,95,70,39,0.00,40.00,15,7,23,0.00
2013-4-1,63,50,41,46,38,13,95,66,27,0.00,40.00,26,9,33,0.00
2013-4-2,44,38,32,14,11,8,46,33,24,0.00,40.00,16,8,31,0.00
2013-4-3,45,39,32,14,11,7,44,31,22,0.00,40.00,24,11,36,0.00
2013-4-4,44,39,30,31,20,9,62,46,31,0.00,40.00,15,6,23,0.00
2013-4-5,63,48,38,36,27,18,90,50,19,0.00,40.00,15,6,27,0.00
2013-4-6,47,41,36,28,19,11,66,42,23,0.00,40.00,16,8,26,0.00
2013-4-7,54,46,37,44,36,26,73,66,55,0.00,40.00,19,9,31,0.00
2013-4-8,65,57,48,46,44,40,84,62,42,0.00,40.00,12,5,16,0.00
2013-4-9,82,68,51,51,46,33,86,51,17,0.00,40.00,17,7,32,0.00
2013-4-10,71,61,52,53,48,44,90,64,47,0.00,40.00,11,6,34,0.00
2013-4-11,60,54,46,58,50,42,95,89,78,0.00,40.00,13,6,21,0.00
2013-4-12,46,44,42,43,41,40,94,92,80,0.00,40.00,16,9,27,0.00
2013-4-13,50,46,41,43,41,38,94,81,66,0.00,40.00,14,5,17,0.00
2013-4-14,58,51,42,43,35,25,95,60,29,0.00,40.00,17,5,30,0.00
2013-4-15,49,47,45,42,37,31,87,68,54,0.00,40.00,9,4,16,0.00
2013-4-16,60,54,46,53,48,43,87,80,73,0.00,40.00,22,9,29,0.00
2013-4-17,64,59,51,55,46,38,89,63,44,0.00,40.00,11,5,16,0.00
2013-4-18,54,51,46,53,45,39,95,81,65,0.00,40.00,12,6,18,0.00
2013-4-19,70,62,54,62,58,53,96,86,72,0.00,40.00,21,11,27,0.00
2013-4-20,66,53,49,61,34,22,89,52,30,0.00,40.00,19,10,31,0.00
2013-4-21,49,44,38,31,24,19,65,46,37,0.00,40.00,13,6,24,0.00
2013-4-22,48,45,40,38,34,30,76,66,57,0.00,40.00,15,8,26,0.00
2013-4-23,50,45,41,42,38,34,91,77,70,0.00,40.00,11,6,26,0.00
2013-4-24,60,51,40,51,44,37,88,77,56,0.00,40.00,15,7,20,0.00
2013-4-25,61,54,47,52,34,22,81,48,22,0.00,40.00,17,9,26,0.00
2013-4-26,62,54,42,35,33,28,78,46,27,0.00,40.00,13,6,19,0.00
2013-4-27,61,56,49,35,29,-100,57,39,28,0.00,40.00,13,6,15,0.00
2013-4-28,62,54,42,47,35,27,81,51,26,0.00,40.00,14,6,21,0.00
2013-4-29,56,53,52,50,48,46,89,82,70,0.00,40.00,9,5,17,0.00
2013-4-30,57,53,49,49,44,38,90,73,51,0.00,40.00,11,4,18,0.00
2013-5-1,56,50,42,47,43,39,92,76,61,0.00,40.00,11,4,17,0.00
2013-5-2,61,52,42,46,43,39,94,72,44,0.00,40.00,8,3,11,0.00
2013-5-3,54,52,49,46,42,38,82,71,54,0.00,40.00,12,4,17,0.00
2013-5-4,57,51,44,46,43,40,92,75,56,0.00,40.00,15,6,19,0.00
2013-5-5,53,49,47,43,40,37,86,72,65,0.00,40.00,11,6,19,0.00
2013-5-6,55,51,48,49,46,44,94,84,71,0.00,40.00,9,5,16,0.00
2013-5-7,57,53,48,53,50,46,96,92,85,0.00,40.00,7,3,11,0.00
2013-5-8,64,59,55,59,55,51,95,88,70,0.00,40.00,13,6,21,0.00
2013-5-9,68,59,54,58,54,52,94,84,58,0.00,40.00,11,3,11,0.00
2013-5-10,74,63,55,58,54,-100,92,75,50,0.00,40.00,11,5,15,0.00
2013-5-11,73,64,61,63,59,-100,95,86,69,0.00,40.00,16,6,0,0.00
2013-5-12,68,61,53,62,42,24,95,56,25,0.00,40.00,16,7,0,0.00
2013-5-13,55,50,43,32,28,21,63,42,28,0.00,40.00,15,7,26,0.00
2013-5-14,60,50,39,42,31,21,75,52,22,0.00,40.00,11,5,20,0.00
2013-5-15,72,58,49,57,47,30,79,67,46,0.00,40.00,13,5,21,0.00
2013-5-16,74,60,57,58,33,-100,92,64,33,0.00,40.00,10,3,13,0.00
2013-5-17,71,63,58,56,34,-100,80,45,28,0.00,40.00,14,5,18,0.00
2013-5-18,61,57,54,54,51,46,88,79,70,0.00,40.00,10,3,11,0.00
2013-5-19,58,56,55,57,55,52,96,93,83,0.00,40.00,11,7,20,0.00
2013-5-20,76,66,58,67,62,57,96,86,72,0.00,40.00,8,3,15,0.00
2013-5-21,85,76,66,68,66,64,92,73,52,0.00,40.00,10,5,17,0.00
2013-5-22,79,70,61,67,64,59,94,82,65,0.00,40.00,8,4,12,0.00
2013-5-23,77,70,64,68,65,61,92,82,72,0.00,40.00,16,7,27,0.00
2013-5-24,68,57,46,63,54,41,93,87,75,0.00,40.00,15,7,24,0.00
2013-5-25,57,50,44,44,40,33,92,71,45,0.00,40.00,23,9,37,0.00
2013-5-26,68,58,49,38,34,30,62,43,26,0.00,40.00,21,9,31,0.00
2013-5-27,73,61,44,42,37,31,77,45,24,0.00,40.00,11,4,18,0.00
2013-5-28,69,59,51,58,52,43,95,77,42,0.00,40.00,11,3,15,0.00
2013-5-29,88,70,57,68,61,55,95,75,40,0.00,40.00,8,2,17,0.00
2013-5-30,90,80,72,66,64,60,79,60,38,0.00,40.00,8,4,16,0.00
2013-5-31,89,81,72,68,66,62,82,61,43,0.00,40.00,12,5,20,0.00
2013-6-1,89,79,71,67,63,-100,80,62,36,0.00,40.00,14,6,21,0.00
2013-6-2,87,78,73,68,66,65,85,68,49,0.00,40.00,14,8,26,0.00
2013-6-3,75,71,69,69,67,65,93,88,77,0.00,40.00,10,4,20,0.00
2013-6-4,74,67,59,60,44,40,77,46,29,0.00,40.00,13,6,24,0.00
2013-6-5,66,63,59,58,49,42,91,62,47,0.00,40.00,7,3,13,0.00
2013-6-6,66,62,59,60,58,56,94,87,76,0.00,40.00,11,5,17,0.00
2013-6-7,67,62,61,65,61,58,96,95,91,0.00,40.00,11,4,18,0.00
2013-6-8,77,68,58,65,61,55,96,79,60,0.00,40.00,10,5,25,0.00
2013-6-9,77,70,62,63,59,55,89,70,49,0.00,40.00,7,3,16,0.00
2013-6-10,70,66,64,65,63,61,96,91,77,0.00,40.00,10,4,18,0.00
2013-6-11,81,74,68,68,64,60,96,73,53,0.00,40.00,14,6,24,0.00
2013-6-12,79,72,65,60,56,50,73,58,36,0.00,40.00,11,6,23,0.00
2013-6-13,67,65,61,63,59,55,95,83,66,0.00,40.00,13,6,28,0.89
2013-6-14,70,61,55,57,53,50,92,76,54,0.00,40.00,13,7,28,0.12
2013-6-15,80,70,58,58,53,49,86,59,34,0.00,40.00,9,3,19,0.00
2013-6-16,84,72,61,66,58,54,82,63,45,0.00,40.00,19,5,29,0.00
2013-6-17,86,74,67,67,64,62,90,74,44,0.00,40.00,12,4,20,0.04
2013-6-18,77,69,65,67,64,61,93,83,70,0.00,40.00,9,3,17,0.43
2013-6-19,75,67,63,63,54,46,91,66,36,0.00,40.00,8,5,21,0.00
2013-6-20,75,66,57,56,53,52,88,65,46,0.00,40.00,15,4,19,0.00
2013-6-22,79,73,69,62,57,53,69,57,45,0.00,40.00,11,6,19,0.00
2013-6-23,82,74,65,71,65,53,92,73,57,0.00,40.00,13,5,19,0.19
2013-6-24,91,79,73,72,68,61,93,72,45,0.00,40.00,9,4,16,0.01
2013-6-25,91,81,70,71,67,64,87,64,42,0.00,40.00,11,5,24,0.03
2013-6-26,89,79,73,70,66,61,91,65,39,0.00,40.00,10,5,17,0.19
2013-6-27,81,76,73,72,70,69,92,83,72,0.00,40.00,18,9,24,0.06
2013-6-28,87,78,73,71,68,63,86,73,46,0.00,40.00,13,7,21,0.01
2013-6-29,81,74,69,70,67,65,89,79,64,0.00,40.00,14,5,21,0.01
2013-6-30,80,74,70,72,70,67,92,86,75,0.00,40.00,9,4,16,0.06
2013-7-1,80,73,70,72,70,67,94,90,77,0.00,40.00,8,4,15,0.75
2013-7-2,82,75,71,73,71,68,93,86,74,0.00,40.00,9,4,31,0.21
2013-7-3,83,77,71,73,71,68,90,82,72,0.00,40.00,12,5,17,0.08
2013-7-4,89,81,75,73,71,67,92,74,49,0.00,40.00,12,6,18,0.00
2013-7-5,92,82,74,73,70,66,87,68,45,0.00,40.00,12,6,18,0.00
2013-7-6,93,82,76,73,71,69,86,71,45,0.00,40.00,12,6,17,0.00
2013-7-7,93,85,76,73,71,69,83,63,47,0.00,40.00,11,5,17,0.00
2013-7-8,88,77,72,69,67,66,82,72,49,0.00,40.00,12,6,21,0.00
2013-7-9,88,79,71,71,68,65,85,69,49,0.00,40.00,12,4,16,0.05
2013-7-10,87,79,74,75,67,-100,89,71,54,0.00,40.00,11,5,24,0.28
2013-7-11,84,79,75,73,70,66,91,76,55,0.00,40.00,8,4,16,0.12
2013-7-12,76,73,69,69,66,62,93,80,64,0.00,40.00,10,5,23,0.51
2013-7-13,81,75,70,74,71,67,94,89,81,0.00,40.00,10,4,16,0.00
2013-7-14,87,80,73,73,72,70,92,77,61,0.00,40.00,10,4,15,0.00
2013-7-15,94,83,76,78,72,69,85,70,47,0.00,40.00,9,5,19,0.04
2013-7-16,93,85,76,73,66,59,86,58,34,0.00,40.00,9,2,15,0.00
2013-7-17,91,84,75,70,68,65,84,60,43,0.00,40.00,11,4,14,0.00
2013-7-18,96,87,77,75,71,68,78,60,41,0.00,40.00,7,4,15,0.00
2013-7-19,97,88,80,76,73,71,84,63,43,0.00,40.00,13,7,21,0.00
2013-7-20,93,84,79,74,68,-100,75,61,42,0.00,40.00,17,8,23,0.00
2013-7-21,82,78,74,71,67,61,83,70,52,0.00,40.00,11,4,17,0.00
2013-7-22,81,77,74,74,73,71,93,89,76,0.00,40.00,8,3,14,0.32
2013-7-23,87,79,72,74,71,66,93,78,57,0.00,40.00,8,4,17,0.37
2013-7-24,82,77,73,71,65,56,84,66,54,0.00,40.00,10,5,17,0.00
2013-7-25,72,66,64,59,56,54,80,70,57,0.00,40.00,15,7,20,0.00
2013-7-26,80,72,65,67,61,56,84,70,45,0.00,40.00,11,4,16,0.00
2013-7-27,80,73,64,68,64,60,90,76,52,0.00,40.00,15,5,18,0.00
2013-7-28,77,72,66,70,67,64,95,86,75,0.00,40.00,12,5,21,0.07
2013-7-29,84,74,68,70,63,51,93,71,36,0.00,40.00,7,4,15,0.09
2013-7-30,81,72,62,59,55,52,80,58,37,0.00,40.00,12,4,16,0.00
2013-7-31,79,72,62,63,59,56,88,66,45,0.00,40.00,10,4,15,0.00
2013-8-1,75,71,69,68,64,61,93,81,66,0.00,40.00,10,4,17,0.65
2013-8-2,83,75,68,67,63,57,94,69,41,0.00,40.00,11,4,3,0.00
2013-8-3,74,72,69,65,64,63,82,77,71,0.00,40.00,8,4,11,0.01
2013-8-4,79,76,70,56,53,50,56,46,36,0.00,40.00,13,7,20,0.00
2013-8-5,77,69,60,58,50,42,71,53,28,0.00,40.00,7,4,20,0.00
2013-8-6,77,70,60,61,56,50,84,61,39,0.00,40.00,15,5,18,0.00
2013-8-7,77,73,69,67,64,62,86,75,60,0.00,40.00,12,6,26,0.00
2013-8-8,79,74,71,71,70,67,93,85,77,0.00,40.00,15,6,25,1.16
2013-8-9,85,79,73,73,72,70,91,81,66,0.00,40.00,19,6,24,0.07
2013-8-10,82,77,71,73,64,59,90,68,47,0.00,40.00,11,3,16,0.00
2013-8-11,77,71,64,67,59,54,91,68,49,0.00,40.00,8,3,16,0.00
2013-8-12,78,73,69,69,68,66,92,84,73,0.00,40.00,5,2,8,0.13
2013-8-13,76,70,68,72,65,-100,95,88,72,0.00,40.00,7,3,23,0.43
2013-8-14,73,68,62,67,52,46,88,57,43,0.00,40.00,18,9,29,0.00
2013-8-15,74,60,55,55,41,-100,83,59,33,0.00,40.00,8,3,15,0.00
2013-8-16,76,66,57,58,50,-100,88,63,41,0.00,40.00,8,3,12,0.00
2013-8-17,76,67,57,60,54,-100,92,66,42,0.00,40.00,10,2,11,0.00
2013-8-18,74,68,63,64,59,54,91,74,53,0.00,40.00,5,1,13,0.00
2013-8-19,77,66,62,63,52,-100,85,69,47,0.00,40.00,9,3,13,0.00
2013-8-20,68,68,67,63,63,63,86,85,84,0.00,40.00,2,1,7,0.00
2013-8-21,86,80,76,71,68,57,83,69,37,0.00,40.00,9,4,15,0.00
2013-8-22,82,74,71,71,69,66,90,82,69,0.00,40.00,8,4,26,0.36
2013-8-23,80,73,69,68,61,50,91,67,36,0.00,40.00,9,4,16,0.00
2013-8-24,74,68,62,62,54,-100,88,63,48,0.00,40.00,9,4,17,0.00
2013-8-25,81,69,57,59,53,47,94,62,33,0.00,40.00,11,4,15,0.00
2013-8-26,83,73,65,64,59,52,76,62,49,0.00,40.00,14,7,20,0.00
2013-8-27,84,75,70,67,66,65,90,74,52,0.00,40.00,13,7,19,0.06
2013-8-28,79,77,72,70,69,67,92,77,67,0.00,40.00,5,2,11,0.00
2013-8-29,75,72,69,70,66,64,94,83,69,0.00,40.00,7,4,15,0.00
2013-8-30,83,78,70,68,67,63,83,69,57,0.00,40.00,11,6,16,0.00
2013-8-31,86,77,71,72,67,-100,89,75,60,0.00,40.00,10,5,15,0.00
2013-9-1,84,77,73,72,71,69,92,82,69,0.00,40.00,11,5,17,0.00
2013-9-2,80,75,72,73,72,69,93,89,76,0.00,40.00,6,2,10,0.06
2013-9-3,81,74,67,71,65,55,94,75,45,0.00,40.00,10,4,18,0.00
2013-9-4,80,71,62,58,55,48,84,61,36,0.00,40.00,11,5,18,0.00
2013-9-5,78,70,63,59,52,41,80,56,30,0.00,40.00,10,4,19,0.00
2013-9-6,69,63,55,48,45,39,78,52,34,0.00,40.00,9,4,17,0.00
2013-9-7,76,63,50,55,47,-100,86,60,31,0.00,40.00,11,4,17,0.00
2013-9-8,81,72,64,62,56,44,85,60,36,0.00,40.00,14,6,21,0.00
2013-9-9,70,66,62,59,51,44,78,58,44,0.00,40.00,13,6,19,0.00
2013-9-10,86,76,67,71,67,59,81,72,60,0.00,40.00,11,6,18,0.00
2013-9-11,91,82,74,74,71,69,87,69,51,0.00,40.00,14,5,16,0.00
2013-9-12,86,76,71,72,69,65,91,79,58,0.00,40.00,9,4,27,1.27
2013-9-13,76,69,62,67,60,49,93,74,47,0.00,40.00,15,6,21,0.09
2013-9-14,66,58,53,49,44,-100,84,63,50,0.00,40.00,12,7,21,0.00
2013-9-15,72,58,47,56,47,42,88,70,36,0.00,40.00,7,3,16,0.00
2013-9-16,69,63,60,58,55,50,88,75,58,0.00,40.00,9,3,14,0.06
2013-9-17,62,56,48,50,40,36,86,56,39,0.00,40.00,12,5,21,0.03
2013-9-18,57,46,44,49,43,41,91,87,74,0.00,40.00,3,0,7,0.00
2013-9-19,73,60,49,56,50,47,92,72,41,0.00,40.00,8,3,14,0.00
2013-9-20,73,64,53,59,55,51,93,74,52,0.00,40.00,11,4,16,0.00
2013-9-21,75,65,54,67,59,-100,95,83,60,0.00,40.00,13,5,25,0.10
2013-9-22,70,64,57,67,51,42,94,65,44,0.00,40.00,12,6,22,0.45
2013-9-23,65,57,47,44,41,39,80,58,40,0.00,40.00,12,6,18,0.00
2013-9-24,71,58,45,49,45,42,89,63,40,0.00,40.00,7,3,15,0.00
2013-9-25,69,60,48,52,48,42,91,65,49,0.00,40.00,8,3,13,0.00
2013-9-26,68,59,50,58,54,48,94,84,66,0.00,40.00,9,2,16,0.00
2013-9-27,65,60,52,56,53,50,95,77,62,0.00,40.00,11,4,12,0.00
2013-9-28,70,62,56,55,51,-100,91,69,50,0.00,40.00,9,4,14,0.00
2013-9-29,67,59,51,57,52,49,95,77,57,0.00,40.00,8,2,14,0.00
2013-9-30,69,59,48,56,52,47,95,78,49,0.00,40.00,7,2,11,0.00
2013-10-1,70,67,65,57,57,56,72,68,63,0.00,40.00,3,2,6,0.00
2013-10-2,82,70,59,60,57,55,87,65,41,0.00,40.00,10,3,18,0.00
2013-10-3,74,67,58,60,56,49,92,70,42,0.00,40.00,7,2,12,0.00
2013-10-4,83,71,59,65,61,55,93,73,47,0.00,40.00,9,3,16,0.00
2013-10-5,71,67,64,65,63,62,93,86,74,0.00,40.00,8,3,11,0.02
2013-10-6,70,67,64,67,65,63,95,93,88,0.00,40.00,7,5,14,0.00
2013-10-7,77,69,60,68,64,55,93,85,72,0.00,40.00,27,9,28,0.16
2013-10-8,66,60,53,53,45,39,81,59,40,0.00,40.00,14,5,20,0.00
2013-10-9,62,60,58,49,47,42,70,63,53,0.00,40.00,12,8,23,0.00
2013-10-10,63,60,56,57,54,49,88,81,72,0.00,40.00,11,7,23,0.15
2013-10-11,66,63,61,59,58,56,90,83,76,0.00,40.00,11,7,23,0.28
2013-10-12,67,63,61,56,50,-100,78,65,49,0.00,40.00,16,8,27,0.00
2013-10-13,63,60,58,53,50,48,79,72,61,0.00,40.00,13,7,25,0.00
2013-10-14,61,57,50,50,49,47,93,73,59,0.00,40.00,7,3,13,0.00
2013-10-15,64,57,46,55,50,45,95,81,61,0.00,40.00,6,2,14,0.00
2013-10-16,64,61,59,58,56,54,90,86,75,0.00,40.00,6,2,10,0.00
2013-10-17,72,64,60,61,60,58,93,86,65,0.00,40.00,10,5,16,0.00
2013-10-18,67,61,53,61,46,41,85,58,39,0.00,40.00,14,7,24,0.01
2013-10-19,63,54,44,54,44,-100,88,72,53,0.00,40.00,7,3,14,0.00
2013-10-20,62,55,48,55,39,31,88,58,32,0.00,40.00,16,6,20,0.00
2013-10-21,66,54,42,46,39,33,82,60,29,0.00,40.00,16,4,22,0.00
2013-10-22,68,56,45,49,45,41,93,67,43,0.00,40.00,11,3,20,0.00
2013-10-23,54,50,42,41,38,34,83,65,49,0.00,40.00,10,3,15,0.01
2013-10-24,53,45,38,36,30,24,83,59,34,0.00,40.00,16,6,22,0.00
2013-10-25,54,45,38,31,29,25,69,54,35,0.00,40.00,11,6,25,0.00
2013-10-26,56,44,35,32,27,-100,81,56,30,0.00,40.00,17,6,26,0.00
2013-10-27,58,50,42,32,30,29,64,47,33,0.00,40.00,12,5,23,0.00
2013-10-28,62,47,36,37,30,-100,83,57,32,0.00,40.00,10,3,20,0.00
2013-10-29,54,50,41,40,38,35,88,64,50,0.00,40.00,10,4,16,0.00
2013-10-30,59,51,41,51,45,38,91,82,69,0.00,40.00,6,1,12,0.00
2013-10-31,66,61,52,60,55,49,93,82,72,0.00,40.00,8,4,19,0.02
2013-11-1,71,66,58,61,58,51,92,76,56,0.00,40.00,21,8,34,0.18
2013-11-2,65,58,51,58,53,46,96,83,58,0.00,40.00,5,2,10,0.00
2013-11-3,50,46,38,41,32,21,80,59,41,0.00,40.00,12,7,23,0.00
2013-11-4,46,41,36,33,22,16,67,48,38,0.00,40.00,11,5,21,0.00
2013-11-5,54,50,46,42,38,33,84,63,55,0.00,40.00,9,4,15,0.00
2013-11-6,60,52,37,54,45,36,94,78,56,0.00,40.00,10,5,17,0.00
2013-11-7,65,57,41,59,49,30,89,77,54,0.00,40.00,17,8,27,0.05
2013-11-8,49,43,39,33,27,22,70,54,36,0.00,40.00,16,7,26,0.00
2013-11-9,50,42,34,32,24,-100,71,52,34,0.00,40.00,11,5,20,0.00
2013-11-10,60,52,45,35,30,24,65,44,31,0.00,40.00,18,9,30,0.00
2013-11-11,54,48,40,32,26,23,52,42,31,0.00,40.00,16,7,25,0.00
2013-11-12,51,39,32,35,24,15,89,57,42,0.00,40.00,17,9,26,0.03
2013-11-13,39,32,28,17,13,8,61,47,27,0.00,40.00,13,7,24,0.00
2013-11-14,54,42,31,19,14,7,58,35,15,0.00,40.00,12,6,24,0.00
2013-11-15,57,44,35,36,28,18,78,56,33,0.00,40.00,5,2,13,0.00
2013-11-16,54,46,41,47,39,-100,94,80,64,0.00,40.00,7,2,11,0.07
2013-11-17,61,56,45,59,54,43,95,93,88,0.00,40.00,8,4,14,0.00
2013-11-18,66,60,53,58,40,23,95,52,25,0.00,40.00,19,8,37,0.28
2013-11-19,51,44,37,25,22,21,52,42,33,0.00,40.00,15,10,32,0.00
2013-11-20,43,38,34,22,18,11,59,44,28,0.00,40.00,11,5,18,0.00
2013-11-21,51,47,33,42,36,20,74,65,50,0.00,40.00,8,4,16,0.00
2013-11-22,58,52,47,50,46,40,88,79,69,0.00,40.00,9,4,17,0.00
2013-11-23,53,43,33,48,23,-100,85,48,30,0.00,40.00,15,10,36,0.00
2013-11-24,32,26,23,8,-1,-4,36,31,26,0.00,40.00,26,13,42,0.00
2013-11-25,36,28,20,12,7,0,56,43,32,0.00,40.00,11,5,16,0.00
2013-11-26,53,40,32,51,28,15,94,64,36,0.00,40.00,10,5,21,0.60
2013-11-27,62,48,35,59,43,20,94,85,54,0.00,40.00,18,12,39,1.13
2013-11-28,36,32,28,20,12,7,61,45,30,0.00,40.00,17,9,30,0.00
2013-11-29,39,33,27,21,17,14,74,54,40,0.00,40.00,9,3,19,0.00
2013-11-30,44,35,28,37,22,-100,76,62,53,0.00,40.00,12,4,16,0.00
2013-12-1,49,41,32,37,32,28,84,71,50,0.00,40.00,5,2,11,0.00
2013-12-2,49,41,34,41,33,28,94,75,46,0.00,40.00,5,1,8,0.00
2013-12-3,53,42,34,39,36,32,95,82,50,0.00,40.00,5,2,9,0.00
2013-12-4,50,42,34,45,39,31,94,88,76,0.00,40.00,5,2,8,0.00
2013-12-5,59,54,44,54,51,42,95,91,80,0.00,40.00,6,2,17,0.01
2013-12-6,62,49,38,59,47,36,95,91,86,0.00,40.00,9,6,20,0.40
2013-12-7,41,36,31,34,26,-100,91,70,51,0.00,40.00,12,6,24,0.18
2013-12-8,35,31,28,33,23,15,95,75,50,0.00,40.00,11,5,17,0.14
2013-12-9,42,38,34,41,36,32,95,93,90,0.00,40.00,12,7,22,0.77
2013-12-10,35,32,27,32,28,18,94,86,63,0.00,40.00,11,5,18,0.13
2013-12-11,33,29,26,16,14,11,64,54,45,0.00,40.00,11,6,23,0.00
2013-12-12,27,25,21,14,6,0,63,48,32,0.00,40.00,17,7,24,0.00
2013-12-13,36,28,20,18,10,4,69,49,38,0.00,40.00,16,5,21,0.00
2013-12-14,46,32,28,45,26,-100,97,81,63,0.00,40.00,12,7,27,0.42
2013-12-15,52,38,32,50,32,18,95,78,52,0.00,40.00,19,9,26,0.00
2013-12-16,32,28,21,21,10,5,67,49,36,0.00,40.00,16,7,31,0.00
2013-12-17,41,31,23,39,25,10,94,82,58,0.00,40.00,9,3,14,0.00
2013-12-18,37,30,24,22,19,18,88,67,46,0.00,40.00,17,7,23,0.00
2013-12-19,49,37,27,29,24,18,78,60,39,0.00,40.00,9,3,16,0.00
2013-12-20,55,45,31,48,33,28,90,65,39,0.00,40.00,11,4,16,0.00
2013-12-21,67,56,53,53,46,-100,82,71,55,0.00,40.00,15,7,19,0.00
2013-12-22,72,65,63,61,57,53,84,76,64,0.00,40.00,21,10,31,0.01
2013-12-23,64,56,43,60,52,35,95,88,72,0.00,40.00,14,4,30,0.63
2013-12-24,42,36,29,30,21,12,70,54,41,0.00,40.00,13,8,22,0.00
2013-12-25,30,25,20,18,8,4,62,49,37,0.00,40.00,13,6,26,0.00
2013-12-26,39,30,24,24,20,15,83,69,55,0.00,40.00,9,2,21,0.00
2013-12-27,42,33,26,21,18,14,78,58,33,0.00,40.00,11,3,20,0.00
2013-12-28,57,42,27,26,22,-100,81,49,28,0.00,40.00,20,6,27,0.00
2013-12-29,50,44,41,49,36,25,95,74,47,0.00,40.00,14,6,26,1.28
2013-12-30,46,38,25,37,28,9,88,68,50,0.00,40.00,15,7,21,0.00
2013-12-31,36,28,23,22,12,6,62,52,41,0.00,40.00,21,7,24,0.00
2014-1-1,36,30,23,27,14,6,71,54,43,0.00,40.00,9,3,20,0.00
2014-1-2,36,31,23,31,27,21,95,86,70,0.00,40.00,20,8,24,0.00